Weather History for Vancouver, WA

Change the Weather History Date:

Sunday, April 14, 2013

  Actual Average Record
Temperature  
Mean Temperature 47 °F 52 °F  
Max Temperature 53 °F 61 °F 88 °F (1926)
Min Temperature 41 °F 42 °F 27 °F (1911)
Degree Days  
Heating Degree Days 18    
Month to date heating degree days 198  
Since 1 July heating degree days 3761  
Cooling Degree Days 0    
Month to date cooling degree days 0  
Year to date cooling degree days 0  
Moisture  
Dew Point 37 °F    
Average Humidity 70    
Maximum Humidity 89    
Minimum Humidity 50    
Precipitation  
Precipitation 0.03 in 0.11 in 1.00 in (1937)
Month to date precipitation 1.48 1.43  
Year to date precipitation 7.62 14.53  
Snow  
Snow 0.00 in - - ()
Month to date snowfall 0.0  
Snow Depth 0.00 in    
Sea Level Pressure  
Sea Level Pressure 30.02 in    
Wind  
Wind Speed 3 mph (West)    
Max Wind Speed 17 mph    
Max Gust Speed 23 mph    
Visibility 10 miles    
Events Rain    
T = Trace of Precipitation, MM = Missing Value Source: NWS Daily Summary

Daily Weather History Graph

Daily Weather History Graph

Search for Another Location

Airport:

Trip Planner

Search our weather history database for the weather conditions in past years. The results will help you decide how hot, cold, wet, or windy it might be!

Date:

Astronomy

Apr. 14, 2013 Rise Set
Actual Time 6:26 AM PDT 7:56 PM PDT
Civil Twilight 5:55 AM PDT 8:27 PM PDT
Nautical Twilight 5:17 AM PDT 9:04 PM PDT
Astronomical Twilight 4:37 AM PDT 9:45 PM PDT
Moon 8:58 AM PDT (4/14) No Moon Set
Length of Visible Light 14h 32m
Length of Day
13h 30m
Waxing Crescent, 18% of the Moon is Illuminated
Apr 14
Waxing Crescent
Apr 18
First Quarter
Apr 25
Full
May 2
Last Quarter
May 9
New

Hourly Weather History & Observations

Time (PDT) Temp. Windchill Dew Point Humidity Pressure Visibility Wind Dir Wind Speed Gust Speed Precip Events Conditions
12:53 AM 43.0 °F - 36.0 °F 76% 30.09 in 10.0 mi Calm Calm - N/A   Mostly Cloudy
1:53 AM 42.1 °F - 36.0 °F 79% 30.09 in 10.0 mi Calm Calm - N/A   Mostly Cloudy
2:53 AM 42.1 °F 38.4 °F 37.0 °F 82% 30.08 in 10.0 mi SW 5.8 mph - N/A   Overcast
3:53 AM 43.0 °F 41.3 °F 36.0 °F 76% 30.08 in 10.0 mi SSW 3.5 mph - N/A   Overcast
4:53 AM 42.1 °F - 37.0 °F 82% 30.07 in 10.0 mi Calm Calm - 0.02 in Rain Light Rain
5:12 AM 42.8 °F - 37.4 °F 81% 30.07 in 10.0 mi Calm Calm - 0.00 in   Overcast
5:35 AM 42.8 °F - 37.4 °F 81% 30.06 in 9.0 mi Calm Calm - 0.00 in Rain Light Rain
5:53 AM 42.1 °F - 37.9 °F 85% 30.06 in 8.0 mi Calm Calm - 0.01 in Rain Light Rain
6:53 AM 42.1 °F - 39.0 °F 89% 30.06 in 10.0 mi Calm Calm - 0.00 in   Overcast
7:29 AM 42.8 °F - 39.2 °F 87% 30.06 in 10.0 mi Calm Calm - N/A   Overcast
7:53 AM 42.1 °F - 39.0 °F 89% 30.05 in 10.0 mi Calm Calm - N/A   Overcast
8:53 AM 43.0 °F - 39.0 °F 86% 30.04 in 10.0 mi Calm Calm - N/A   Overcast
9:23 AM 44.6 °F 43.1 °F 39.2 °F 81% 30.04 in 10.0 mi SW 3.5 mph - N/A   Overcast
9:53 AM 44.1 °F - 37.9 °F 79% 30.04 in 10.0 mi Calm Calm - N/A   Overcast
10:12 AM 44.6 °F - 39.2 °F 81% 30.04 in 10.0 mi Calm Calm - N/A   Overcast
10:53 AM 46.0 °F - 39.0 °F 76% 30.03 in 10.0 mi Calm Calm - N/A   Overcast
11:53 AM 45.0 °F 41.8 °F 37.9 °F 76% 30.02 in 10.0 mi SSW 5.8 mph - N/A   Mostly Cloudy
12:53 PM 48.0 °F - 37.0 °F 66% 30.00 in 10.0 mi SSW 3.5 mph - N/A   Scattered Clouds
1:53 PM 50.0 °F - 37.9 °F 63% 29.98 in 10.0 mi SSE 5.8 mph - N/A   Clear
2:53 PM 51.1 °F - 37.0 °F 59% 29.97 in 10.0 mi ESE 3.5 mph - N/A   Clear
3:53 PM 50.0 °F - 37.0 °F 61% 29.96 in 10.0 mi WNW 6.9 mph - N/A   Overcast
4:53 PM 52.0 °F - 34.0 °F 50% 29.94 in 10.0 mi WNW 8.1 mph - N/A   Overcast
5:53 PM 48.0 °F - 36.0 °F 63% 29.96 in 10.0 mi WNW 9.2 mph 19.6 mph N/A   Mostly Cloudy
6:53 PM 48.0 °F - 36.0 °F 63% 29.95 in 10.0 mi WNW 6.9 mph - N/A   Overcast
7:53 PM 46.9 °F - 36.0 °F 66% 29.96 in 10.0 mi NW 3.5 mph - N/A   Overcast
8:53 PM 46.0 °F 43.1 °F 39.0 °F 76% 29.98 in 10.0 mi NW 5.8 mph - N/A   Overcast
9:53 PM 45.0 °F 42.6 °F 37.0 °F 74% 29.98 in 10.0 mi NW 4.6 mph - 0.00 in   Mostly Cloudy
10:53 PM 44.1 °F - 37.9 °F 79% 29.98 in 10.0 mi Calm Calm - 0.00 in   Scattered Clouds
11:53 PM 44.1 °F 42.5 °F 37.9 °F 79% 29.98 in 10.0 mi NW 3.5 mph - N/A   Overcast